Location: Madison
(43.0730°N, 89.3819°W)
Time: 13:09:08
(UTC-06:00)

ISS - Pass Details

Date: 28 January 2019
Orbit: 403 x 411 km, 51.6° (Epoch: 21 February)

Event Time Altitude Azimuth Distance (km) Brightness Sun altitude
Rises 18:15:59 0° 272° (W) 2,331 1.7 -13.2°
Reaches altitude 10° 18:18:19 10° 286° (WNW) 1,474 0.0 -13.6°
Maximum altitude 18:21:06 25° 344° (NNW) 884 -2.1 -14.1°
Enters shadow 18:22:45 17° 26° (NNE) 1,129 -1.9 -14.4°
